This demonstration page uses our WeatherBlox Daily Observations layout. Learn more.

Left ArrowRight Arrow

38.88101, -77.10428

Hourly Observations for July 15, 2020

Temp ( °F °C ) Dew Point ( °F °C ) Humidity (%) Winds ( mph kmh ) Pressure ( in mb ) Visibility ( mi km ) Precip ( " mm )
12:52 am 00:52 Clear 77 25 67 19.4 71 71 SW 5 7 30.08 1019 10 16.0934 0 0
1:52 am 01:52 Clear 76 24.4 66 18.9 72 72 SW 3 6 30.08 1019 10 16.0934 0 0
2:52 am 02:52 Mostly Clear 75 23.9 65 18.3 71 71 SW 5 7 30.08 1019 10 16.0934 0 0
3:52 am 03:52 Partly Cloudy 75 23.9 66 18.9 74 74 SW 3 6 30.09 1019 10 16.0934 0 0
4:52 am 04:52 Partly Cloudy 74 23.3 65 18.3 74 74 SW 5 7 30.11 1020 10 16.0934 0 0
5:52 am 05:52 Partly Cloudy 72 22.2 64 17.8 76 76 WSW 3 6 30.11 1020 10 16.0934 0 0
6:52 am 06:52 Mostly Sunny 74 23.3 63 17.2 69 69 N 3 6 30.12 1020 10 16.0934 0 0
7:52 am 07:52 Mostly Sunny 77 25 63 17.2 62 62 Calm 30.13 1020 10 16.0934 0 0
8:52 am 08:52 Mostly Sunny 80 26.7 65 18.3 60 60 NNE 5 7 30.13 1020 10 16.0934 0 0
9:52 am 09:52 Mostly Sunny 81 27.2 64 17.8 57 57 ENE 5 7 30.13 1020 10 16.0934 0 0
10:52 am 10:52 Mostly Sunny 85 29.4 65 18.3 51 51 ESE 3 6 30.14 1021 10 16.0934 0 0
11:52 am 11:52 Partly Cloudy 87 30.6 60 15.6 40 40 ESE 3 6 30.15 1021 10 16.0934 0 0
12:52 pm 12:52 Partly Cloudy 90 32.2 62 16.7 39 39 S 9 15 30.15 1021 10 16.0934 0 0
1:52 pm 13:52 Partly Cloudy 90 32.2 59 15 35 35 S 7 11 30.14 1021 10 16.0934 0 0
2:52 pm 14:52 Partly Cloudy 90 32.2 61 16.1 38 38 S 7 11 30.14 1021 10 16.0934 0 0
3:52 pm 15:52 Mostly Cloudy 88 31.1 66 18.9 48 48 ESE 9 15 30.12 1020 10 16.0934 0 0
4:52 pm 16:52 Partly Cloudy 88 31.1 66 18.9 48 48 ESE 10 17 30.12 1020 10 16.0934 0 0
5:52 pm 17:52 Partly Cloudy 88 31.1 66 18.9 48 48 SE 12 19 30.11 1020 10 16.0934 0 0
6:52 pm 18:52 Partly Cloudy 87 30.6 66 18.9 50 50 SE 12 19 30.12 1020 10 16.0934 0 0
7:52 pm 19:52 Partly Cloudy 86 30 65 18.3 49 49 ESE 12 19 30.12 1020 10 16.0934 0 0
8:52 pm 20:52 Partly Cloudy 83 28.3 66 18.9 57 57 ESE 10 17 30.12 1020 10 16.0934 0 0
9:52 pm 21:52 Partly Cloudy 81 27.2 71 21.7 72 72 ESE 10 17 30.14 1021 10 16.0934 0 0
10:52 pm 22:52 Mostly Cloudy 79 26.1 72 22.2 79 79 ESE 10 17 30.15 1021 10 16.0934 0 0
11:52 pm 23:52 Mostly Cloudy 78 25.6 71 21.7 79 79 ESE 10 17 30.17 1022 10 16.0934 0 0

Powered by AerisWeather